Regional Weather Roundup
Issued by NWS

Home | Current Version | Previous Version | Text Only | Print | Product List | Glossary On
Versions: 1 2 3 4 5 6 7 8 9 10 11 12 13 14 15 16 17 18 19 20 21 22 23 24 25 26 27 28 29 30 31 32 33 34 35 36 37 38 39 40 41 42 43 44 45 46 47 48 49 50
000
ASUS43 KDMX 061107
RWRIA

WEATHER ROUNDUP FOR IOWA
NATIONAL WEATHER SERVICE DES MOINES IA
500 AM CST FRI MAR 06 2015

NOTE: "FAIR" INDICATES FEW OR NO CLOUDS BELOW 12,000 FEET WITH NO
SIGNIFICANT WEATHER AND/OR OBSTRUCTIONS TO VISIBILITY.

* - THESE STATIONS ARE NOT NWS STATIONS...THUS NOT UNDER NWS
QUALITY CONTROL.  THEY ALSO DO NOT REPORT WEATHER SUCH
AS PRECIPITATION OR FOG.

IAZ001>003-012>014-020>022-031>034-043>046-061200-
   NORTHWEST IOWA

CITY           SKY/WX    TMP DP  RH WIND       PRES   REMARKS
CARROLL *      MOCLDY    23  12  63 SW18      30.15F WCI   9
CHEROKEE *     CLEAR     18  10  73 S6        30.14S WCI   9
DENISON *      CLEAR     21  12  68 S8G17     30.14F WCI  12
LE MARS *      CLEAR     19  12  73 S7        30.14R WCI  10
ORANGE CITY *  CLEAR     18  10  73 SW8       30.11S WCI   7
SHELDON *      PTCLDY    19  10  68 S10       30.10S WCI   8
SIOUX CITY     CLEAR     17   9  70 E6        30.15S WCI   9
SPENCER          N/A     18   9  68 SW7       30.12F WCI   9
STORM LAKE *   CLEAR     21  12  68 SW16      30.12F WCI   7
$$

IAZ055>058-069>071-079>083-090>094-061200-
   SOUTHWEST IOWA

CITY           SKY/WX    TMP DP  RH WIND       PRES   REMARKS
ATLANTIC *     CLEAR     21  14  73 S10G17    30.20R WCI  10
AUDUBON *      CLEAR     21  12  68 S9        30.18S WCI  11
CLARINDA *     CLEAR     21  14  73 S9        30.25S WCI  11
COUNCIL BLFS * CLEAR     25  16  68 S10       30.17S WCI  15
CRESTON *      CLEAR     21  12  68 S17       30.21F WCI   7
HARLAN  *      CLEAR     21  14  73 S7        30.21F WCI  13
LAMONI         CLOUDY    20  11  68 S14       30.25F WCI   7
RED OAK *      CLEAR     21  14  73 S8        30.22S WCI  12
SHENANDOAH *   CLEAR     23  16  74 S10       30.23F WCI  12
$$

IAZ047>049-059>061-072>074-084-061200-
   CENTRAL IOWA

CITY           SKY/WX    TMP DP  RH WIND       PRES   REMARKS
AMES           MOCLDY    18   9  68 S8        30.21F WCI   8
ANKENY *       CLOUDY    21  10  63 S12       30.23F WCI   9
CHARITON *     CLOUDY    21  10  63 S17G25    30.26F WCI   7
DES MOINES     MOCLDY    24  11  57 S17       30.22F WCI  11
GRINNELL*      CLOUDY    16   9  73 S16G22    30.25F WCI   0
KNOXVILLE *    CLOUDY    21  10  63 S15       30.24F WCI   8
MARSHALLTOWN   CLOUDY    15   7  70 S13       30.23F WCI   1
PELLA *        PTCLDY    19  14  79 S13       30.28F WCI   7
PERRY *          N/A     21  14  73 S9        30.20S WCI  11
$$

IAZ004>006-015-016-023>025-035-036-061200-
   NORTH CENTRAL IOWA

CITY           SKY/WX    TMP DP  RH WIND       PRES   REMARKS
ALGONA *       CLEAR     16  10  79 S16       30.14F WCI   0
CLARION *      CLEAR     12   9  85 S14       30.17S WCI  -3
ESTHERVILLE    CLEAR     11   6  81 S9        30.11F WCI  -2
FORT DODGE *   CLEAR     18   9  68 S8        30.17F WCI   7
MASON CITY     PTCLDY    11   4  73 S13       30.18F WCI  -4
FOREST CITY *  CLEAR     12   5  73 S9        30.15F WCI   0
IOWA FALLS *   MOCLDY    16   9  73 S18       30.19F WCI  -1
$$

IAZ007>011-017>019-026>030-037>042-050>054-066-061200-
   NORTHEAST IOWA

CITY           SKY/WX    TMP DP  RH WIND       PRES   REMARKS
CEDAR RAPIDS   PTCLDY     6   1  80 S10       30.31F WCI  -9
CHARLES CITY * CLOUDY     9   1  72 S10       30.20F WCI  -6
CLINTON *      PTCLDY     1  -2  85 S7        30.42S WCI -11
DECORAH *      CLOUDY     9   0  66 S12G18    30.22F WCI  -6
DUBUQUE        MOCLDY     1  -5  75 S15       30.32F WCI -18
MONTICELLO *   CLEAR      3  -2  78 S10       30.34F WCI -12
OELWEIN *      CLOUDY     5   0  78 S16       30.26F WCI -14
WATERLOO       CLOUDY     8   2  76 SE10      30.24F WCI  -6
$$

IAZ064-065-067-068-078-061200-
   EAST CENTRAL IOWA

CITY           SKY/WX    TMP DP  RH WIND       PRES   REMARKS
DAVENPORT      PTCLDY     6  -3  66 S13       30.40F WCI -10
IOWA CITY      CLEAR      4  -1  80 SE5       30.38F WCI  -5
MT. PLEASANT * CLEAR      9   3  78 S12       30.39F WCI  -6
MUSCATINE *    CLEAR      5   0  78 S5        30.43F WCI  -4
QUAD CITIES    PTCLDY     8  -2  63 S8        30.42F WCI  -4
$$

IAZ062-063-075>077-085>089-095>099-061200-
   SOUTHEAST IOWA

CITY           SKY/WX    TMP DP  RH WIND       PRES   REMARKS
BURLINGTON     PTCLDY     8   1  73 S10       30.42F WCI  -6
FAIRFIELD *    CLOUDY    12   3  67 S14       30.35F WCI  -3
FORT MADISON * CLEAR      9   3  78 S10       30.42F WCI  -6
KEOKUK *       CLEAR     14   7  73 S8        30.41F WCI   3
OSKALOOSA *    MOCLDY    16   9  73 S15       30.30F WCI   1
CENTERVILLE *  PTCLDY    19  10  68 S13       30.31F WCI   7
OTTUMWA        MOCLDY    16   8  71 S16       30.31F WCI   1
WASHINGTON *   CLOUDY    12   7  79 S14       30.36F WCI  -3
$$

ABBREVIATIONS USED IN REMARKS
   TC - TEMPERATURES IN CELSIUS
  WCI - WIND CHILL INDEX
   HX - HEAT INDEX
  VSB - VISIBILITY
$$




USA.gov is the U.S. government's official web portal to all federal, state and local government web resources and services.